SCD 1 1 22490U 93009B 26119.36679823 .00000476 00000+0 79215-4 0 9995 2 22490 24.9681 149.0064 0041853 341.7189 41.4830 14.46098468754047 TECHSAT 1B (GO-32) 1 25397U 98043D 26119.94777603 .00000069 00000+0 49825-4 0 9998 2 25397 99.0062 111.4935 0001632 36.6482 323.4807 14.24418684444460 SCD 2 1 25504U 98060A 26119.44316538 .00000434 00000+0 70271-4 0 9993 2 25504 24.9968 12.7577 0016622 328.6259 192.8146 14.45507096453269 DLR-TUBSAT 1 25757U 99029B 26119.93222216 .00000110 00000+0 38783-4 0 9995 2 25757 98.6690 113.8516 0014998 133.7363 226.5076 14.52413859426246 TERRA 1 25994U 99068A 26119.94993809 .00000423 00000+0 95235-4 0 9997 2 25994 97.9497 171.3996 0003003 48.3471 53.3425 14.61063809402562 MAROC-TUBSAT 1 27004U 01056D 26119.96839843 -.00000018 00000+0 32542-4 0 9993 2 27004 99.8061 295.9221 0019045 266.3235 210.6978 13.70260440219589 AQUA 1 27424U 02022A 26119.94367998 .00000921 00000+0 19331-3 0 9990 2 27424 98.4249 88.2752 0002077 91.4637 323.5876 14.62081495276228 SHIYAN-1 (SY-1) 1 28220U 04012A 26119.95012831 .00014661 00000+0 46919-3 0 9998 2 28220 97.8705 194.9326 0006064 177.7939 182.3330 15.32505932203702 AURA 1 28376U 04026A 26119.91791708 .00000880 00000+0 18824-3 0 9990 2 28376 98.3387 75.9847 0001690 82.8792 277.2600 14.61252845159162 IRS-P5 (CARTOSAT-1) 1 28649U 05017A 26119.95935114 .00001564 00000+0 16381-3 0 9995 2 28649 97.5344 145.2079 0001234 134.0323 226.0998 14.90922969136633 SINAH 1 1 28893U 05043D 26119.94281544 .00000397 00000+0 84865-4 0 9991 2 28893 98.2786 254.0004 0015632 69.7485 290.5396 14.64124001 93462 RESURS-DK 1 1 29228U 06021A 26119.97485575 .00002716 00000+0 15949-3 0 9997 2 29228 69.9315 104.3341 0003673 335.0599 25.0389 15.13009385 95283 ARIRANG-2 (KOMPSAT-2) 1 29268U 06031A 26120.00983016 .00000660 00000+0 13253-3 0 9993 2 29268 97.8308 306.7876 0013310 222.8683 288.6372 14.64629819 54421 LAPAN-TUBSAT 1 29709U 07001A 26119.97219845 .00000733 00000+0 90577-4 0 9993 2 29709 98.1345 118.1124 0012072 350.0709 10.0265 14.85901848 43990 HAIYANG-1B 1 31113U 07010A 26119.89972591 .00000108 00000+0 57024-4 0 9996 2 31113 98.3477 103.6240 0013313 350.0464 10.0454 14.31014766993725 COSMO-SKYMED 1 1 31598U 07023A 26119.94163694 .00003638 00000+0 32246-3 0 9998 2 31598 97.8866 311.3964 0001717 97.6794 262.4622 14.96866426 22579 TERRASAR-X 1 31698U 07026A 26118.32943873 .00001013 00000+0 51412-4 0 9990 2 31698 97.4453 126.7472 0001859 94.5685 265.5762 15.19151326 45657 WORLDVIEW-1 (WV-1) 1 32060U 07041A 26119.91289850 .00006866 00000+0 28325-3 0 9992 2 32060 97.3889 240.3322 0002153 186.5582 173.5628 15.24364443 35522 YAOGAN-3 1 32289U 07055A 26119.99897178 .00000369 00000+0 43361-4 0 9996 2 32289 97.8198 150.3509 0001325 96.2278 263.9091 14.90590678998685 COSMO-SKYMED 2 1 32376U 07059A 26119.95851690 .00000494 00000+0 68545-4 0 9992 2 32376 97.8884 304.2557 0001398 92.0673 268.0700 14.82163368994851 RADARSAT-2 1 32382U 07061A 26119.96782566 -.00000030 00000+0 53190-5 0 9996 2 32382 98.5794 127.5868 0001234 84.3945 275.7378 14.29983170959064 CARTOSAT-2A 1 32783U 08021A 26119.95069218 .00000120 00000+0 22908-4 0 9990 2 32783 97.7681 170.2973 0010298 268.9918 91.0114 14.79172888971676 HUANJING 1A (HJ-1A) 1 33320U 08041A 26119.95376321 .00000706 00000+0 91031-4 0 9999 2 33320 97.6665 107.6670 0017708 300.2308 59.7153 14.83875237951258 HUANJING 1B (HJ-1B) 1 33321U 08041B 26119.96899718 .00000472 00000+0 63545-4 0 9990 2 33321 97.6507 110.9969 0036157 344.3265 15.6827 14.83228230951267 GEOEYE 1 1 33331U 08042A 26119.92215766 .00000533 00000+0 10915-3 0 9993 2 33331 98.1246 194.4628 0003736 195.1624 164.9467 14.64679435943086 THEOS 1 33396U 08049A 26119.91787743 .00000104 00000+0 68604-4 0 9992 2 33396 98.5612 178.7602 0001287 93.8446 266.2878 14.20126228911110 COSMO-SKYMED 3 1 33412U 08054A 26119.93122799 .00003128 00000+0 21471-3 0 9992 2 33412 97.8354 337.6980 0017407 71.7159 288.5960 15.06644572949679 YAOGAN-4 1 33446U 08061A 26119.79454519 .00001106 00000+0 14216-3 0 9992 2 33446 97.9292 53.6710 0013171 224.6080 135.4075 14.83108081938499 GOSAT (IBUKI) 1 33492U 09002A 26119.86542650 .00000484 00000+0 93812-4 0 9999 2 33492 98.0841 231.5639 0001236 85.8651 274.2695 14.67536824924373 DEIMOS-1 1 35681U 09041A 26119.96051661 .00000828 00000+0 12963-3 0 9991 2 35681 97.7341 279.2943 0001804 41.2904 318.8442 14.75187229899771 DUBAISAT-1 1 35682U 09041B 26119.92694694 .00001271 00000+0 19621-3 0 9998 2 35682 97.9975 253.7352 0009554 220.0407 140.0098 14.75035224897983 OCEANSAT-2 1 35931U 09051A 26119.94639461 -.00000144 00000+0 -72808-4 0 9996 2 35931 98.2301 111.6216 0015862 15.6576 344.5078 13.99649171872587 WORLDVIEW-2 (WV-2) 1 35946U 09055A 26119.94140093 .00000144 00000+0 62202-4 0 9999 2 35946 98.4689 194.0705 0004499 20.4874 339.6492 14.37929745868717 SMOS 1 36036U 09059A 26119.95913070 .00000263 00000+0 97699-4 0 9998 2 36036 98.4433 307.9989 0001203 92.5540 267.5786 14.39747073866519 YAOGAN-7 1 36110U 09069A 26119.95350470 .00000528 00000+0 80247-4 0 9996 2 36110 98.0132 6.1048 0024243 191.7240 168.3409 14.77960982882501 TANDEM-X 1 36605U 10030A 26118.39530723 .00001148 00000+0 57871-4 0 9999 2 36605 97.4449 126.8103 0001640 89.1051 271.0371 15.19151516879083 CARTOSAT-2B 1 36795U 10035A 26119.95500660 .00000311 00000+0 49611-4 0 9998 2 36795 98.0001 170.8022 0011030 354.3806 5.7279 14.78666969852720 YAOGAN-10 1 36834U 10038A 26119.98495288 .00001943 00000+0 23300-3 0 9995 2 36834 97.9018 143.7710 0001442 86.9006 359.3750 14.85200057850055 COSMO-SKYMED 4 1 37216U 10060A 26119.97118703 .00000381 00000+0 54363-4 0 9997 2 37216 97.8884 304.2697 0001365 74.8543 285.2821 14.82165089837428 RESOURCESAT-2 1 37387U 11015A 26119.94728186 .00000136 00000+0 82072-4 0 9992 2 37387 98.7664 187.7164 0011932 41.9295 318.2794 14.21600637779322 HAIYANG-2A 1 37781U 11043A 26119.94053051 -.00000305 00000+0 -26993-3 0 9992 2 37781 99.3404 123.6334 0006991 179.2153 180.9009 13.75754085740027 RASAT 1 37791U 11044D 26119.92966723 .00000583 00000+0 10977-3 0 9992 2 37791 98.0550 212.0694 0020441 349.3843 100.4865 14.68119731786102 SRMSAT 1 37841U 11058D 26119.94991742 .00000432 00000+0 90852-4 0 9998 2 37841 19.9736 351.4402 0011734 33.7234 81.6898 14.11564260750997 PLEIADES 1A 1 38012U 11076F 26119.98844345 .00000136 00000+0 39193-4 0 9991 2 38012 98.1989 195.7351 0000990 83.9386 88.8685 14.58539034764963 ZIYUAN 1-02C (ZY 1-02C) 1 38038U 11079A 26119.95331001 .00000345 00000+0 12781-3 0 9994 2 38038 98.4099 188.2651 0007703 91.9366 81.0169 14.38173397752279 ARIRANG-3 (KOMPSAT-3) 1 38338U 12025B 26119.92525497 .00000494 00000+0 10738-3 0 9995 2 38338 98.1139 78.2303 0003997 266.5029 93.5716 14.62162744744293 EXACTVIEW-1 (ADS-1B) 1 38709U 12039C 26119.93217517 .00000114 00000+0 68724-4 0 9992 2 38709 98.9707 236.2478 0010020 314.3829 45.6528 14.24969739715832 SPOT 6 1 38755U 12047A 26119.97060641 .00000130 00000+0 37752-4 0 9995 2 38755 98.2146 187.8374 0001220 87.2046 272.9293 14.58523825726024 PLEIADES 1B 1 39019U 12068A 26119.92121635 .00000171 00000+0 46620-4 0 9997 2 39019 98.1959 195.6341 0001040 88.9862 271.1456 14.58565293713814 GOKTURK 2 1 39030U 12073A 26119.93273644 .00001128 00000+0 17278-3 0 9994 2 39030 97.6854 319.7770 0001998 98.5421 261.6016 14.75497058717395 LANDSAT 8 1 39084U 13008A 26119.95627185 .00000378 00000+0 93909-4 0 9999 2 39084 98.1849 190.8182 0001218 102.5764 257.5571 14.57134753690873 SARAL 1 39086U 13009A 26119.92737005 .00000113 00000+0 57343-4 0 9991 2 39086 98.5564 307.1044 0002955 76.4786 283.6727 14.32843962688697 GAOFEN-1 1 39150U 13018A 26119.94819392 .00000173 00000+0 32064-4 0 9994 2 39150 97.9115 192.9914 0018348 63.7726 296.5367 14.76519053701122 VNREDSAT 1 1 39160U 13021B 26119.93220610 .00000457 00000+0 93785-4 0 9999 2 39160 97.9125 175.1920 0001271 90.0827 270.0522 14.64955178693226 ARIRANG-5 (KOMPSAT-5) 1 39227U 13042A 26119.81460319 .00002371 00000+0 17363-3 0 9999 2 39227 97.6196 307.1929 0002534 325.2599 34.8461 15.04514309696585 SKYSAT-A 1 39418U 13066C 26119.64209533 .00003059 00000+0 17737-3 0 9996 2 39418 97.3858 170.5853 0023063 120.5976 239.7535 15.12688417681147 DUBAISAT-2 1 39419U 13066D 26119.96072837 .00004169 00000+0 26137-3 0 9994 2 39419 97.4557 111.3860 0010631 189.1790 170.9247 15.09826063679115 GPM-CORE 1 39574U 14009C 26119.98548457 .00007395 00000+0 16245-3 0 9995 2 39574 64.9704 109.6593 0012132 261.0738 98.9029 15.44711329690367 SENTINEL-1A 1 39634U 14016A 26119.27037498 .00000240 00000+0 60563-4 0 9995 2 39634 98.1798 127.5148 0001396 81.3498 278.7860 14.59201578642887 KAZEOSAT 1 1 39731U 14024A 26119.93780950 .00000083 00000+0 38317-4 0 9990 2 39731 98.3223 193.5809 0001471 97.6425 262.4932 14.42059656631609 ALOS-2 1 39766U 14029A 26119.98458169 .00001336 00000+0 18569-3 0 9990 2 39766 97.9207 217.8377 0001696 84.8170 275.3235 14.79476057644452 KAZEOSAT 2 1 40010U 14033A 26119.93172874 .00001238 00000+0 14938-3 0 9997 2 40010 97.5448 322.0860 0009978 113.4316 246.7950 14.85414953641791 HODOYOSHI-4 1 40011U 14033B 26119.95555105 .00002146 00000+0 23803-3 0 9992 2 40011 97.5457 307.1104 0025210 104.2859 256.1160 14.88014093641639 DEIMOS-2 1 40013U 14033D 26119.94928979 .00002472 00000+0 23943-3 0 9993 2 40013 97.5903 356.1211 0002424 95.3289 264.8208 14.93593353630521 HODOYOSHI-3 1 40015U 14033F 26119.95074840 .00001409 00000+0 16849-3 0 9991 2 40015 97.6373 284.9486 0033682 151.2945 209.0134 14.85279610640469 SPOT 7 1 40053U 14034A 26119.96456891 .00000321 00000+0 74763-4 0 9997 2 40053 98.0663 183.6924 0001518 78.5231 281.6141 14.60914517630099 SKYSAT-B 1 40072U 14037D 26119.77472035 .00001647 00000+0 18660-3 0 9993 2 40072 98.3803 75.9964 0006960 77.8212 282.3782 14.87897327638762 WORLDVIEW-3 (WV-3) 1 40115U 14048A 26119.92167593 .00000991 00000+0 12262-3 0 9993 2 40115 97.8576 195.4208 0002870 103.1730 256.9805 14.84940050634740 GAOFEN-2 1 40118U 14049A 26119.93222247 .00000729 00000+0 10140-3 0 9998 2 40118 98.0143 184.1795 0008210 38.4727 321.7069 14.80844051632091 YAOGAN-21 1 40143U 14053A 26119.90091449 .00005981 00000+0 23753-3 0 9995 2 40143 97.1526 162.2237 0006341 260.3062 99.7461 15.25666691647594 YAOGAN-22 1 40275U 14063A 26119.89326007 -.00000017 00000+0 78955-4 0 9992 2 40275 100.7649 270.3768 0005778 301.0777 58.9767 13.15529885553464 ASNARO 1 40298U 14070A 26119.95664212 .00007366 00000+0 35129-3 0 9993 2 40298 97.3466 197.3647 0002625 334.6200 25.4906 15.19375060636682 YAOGAN-24 1 40310U 14072A 26119.95635679 .00001008 00000+0 15323-3 0 9996 2 40310 98.1405 256.9067 0015144 60.8255 299.4467 14.76160138616600 CBERS 4 1 40336U 14079A 26119.94281337 -.00000102 00000+0 -20879-4 0 9997 2 40336 98.3392 178.2895 0001456 128.7679 231.3638 14.35545198597033 YAOGAN-26 1 40362U 14088A 26119.85929120 .00014487 00000+0 30439-3 0 9996 2 40362 97.0653 121.2694 0003293 189.1613 170.9577 15.45428489630238 SMAP 1 40376U 15003A 26119.94329025 .00000491 00000+0 10398-3 0 9999 2 40376 98.1292 127.7182 0001708 75.3452 284.7940 14.63395726600560 KOMPSAT-3A 1 40536U 15014A 26119.91235391 .00032427 00000+0 50782-3 0 9993 2 40536 97.6891 107.8318 0058507 355.3815 4.6888 15.51669321614322 SENTINEL-2A 1 40697U 15028A 26119.96293454 .00000105 00000+0 56539-4 0 9990 2 40697 98.5627 195.5012 0001284 85.3042 274.8288 14.30824316566834 GAOFEN-8 1 40701U 15030A 26119.96781758 .00021658 00000+0 47210-3 0 9999 2 40701 97.6925 310.5060 0009187 16.6091 343.5456 15.44234541604008 CARBONITE 1 (CBNT-1) 1 40718U 15032D 26119.95640301 .00001569 00000+0 19685-3 0 9990 2 40718 97.6493 300.0525 0016010 92.2593 268.0455 14.83434463582198 YAOGAN-27 1 40878U 15040A 26119.98338729 -.00000454 00000+0 -10847-2 0 9991 2 40878 100.1138 108.4624 0007914 330.8270 29.2401 13.16067128511327 GAOFEN-9 01 1 40894U 15047A 26119.94940222 .00001008 00000+0 13024-3 0 9994 2 40894 97.6320 157.8274 0025989 299.9765 59.8870 14.82795070573047 YAOGAN-28 1 41026U 15064A 26119.96464584 .00006733 00000+0 25794-3 0 9992 2 41026 97.3001 259.2517 0010760 9.9216 350.2233 15.26799770583329 YAOGAN-29 1 41038U 15069A 26120.00491777 -.00000193 00000+0 -17081-4 0 9998 2 41038 98.0071 148.5546 0001998 133.7411 226.3968 14.83043155563489 KENT RIDGE 1 1 41167U 15077B 26119.56806171 .00004406 00000+0 15100-3 0 9995 2 41167 14.9801 267.4791 0008356 273.3826 86.5540 15.22833505573673 GAOFEN-4 1 41194U 15083A 26119.93737963 -.00000334 00000+0 00000+0 0 9991 2 41194 0.3848 82.7440 0003272 132.9586 85.3441 1.00272695 38049 JASON-3 1 41240U 16002A 26119.92497045 -.00000047 00000+0 58486-4 0 9995 2 41240 66.0415 227.3000 0008072 274.5622 85.4475 12.87626324481034 SENTINEL-3A 1 41335U 16011A 26119.89706041 .00000123 00000+0 68881-4 0 9999 2 41335 98.6270 187.9683 0000991 99.4808 260.6485 14.26732276531177 ZIYUAN 3-02 (ZY 3-02) 1 41556U 16033A 26119.97853895 .00006023 00000+0 27147-3 0 9991 2 41556 97.3849 196.6725 0014208 102.9527 257.3296 15.21313210550654 CARTOSAT-2C 1 41599U 16040A 26119.91406196 .00002954 00000+0 14324-3 0 9990 2 41599 97.4520 180.5447 0008218 304.7456 55.3004 15.19268658546388 SKYSAT-C1 1 41601U 16040C 26119.80828642 .00009072 00000+0 26527-3 0 9992 2 41601 96.9609 154.1689 0002856 156.8484 203.2890 15.35476842550441 LAPAN-A3 1 41603U 16040E 26119.95192931 .00004104 00000+0 13180-3 0 9997 2 41603 97.1485 117.6964 0010246 177.6522 182.4771 15.32787650547423 GAOFEN-3 1 41727U 16049A 26120.00498431 -.00000026 00000+0 52344-5 0 9992 2 41727 98.4028 128.5159 0001052 65.5167 294.6133 14.42226692511703 SKYSAT-C4 1 41771U 16058B 26119.58576105 .00015347 00000+0 30467-3 0 9998 2 41771 96.9209 143.4379 0003454 91.5940 268.5707 15.47072145537952 SKYSAT-C5 1 41772U 16058C 26119.83590565 .00007987 00000+0 24676-3 0 9999 2 41772 97.0518 162.6468 0004963 103.2050 256.9747 15.33765386536336 SKYSAT-C2 1 41773U 16058D 26119.96305380 .00012703 00000+0 31009-3 0 9993 2 41773 97.0204 143.9040 0002581 183.8550 176.2678 15.40976551537626 SKYSAT-C3 1 41774U 16058E 26119.83521087 .00022972 00000+0 40323-3 0 9992 2 41774 96.9080 152.5946 0002792 102.7255 257.4310 15.50530200538617 ALSAT-1B 1 41785U 16059C 26119.84967964 .00000206 00000+0 40128-4 0 9994 2 41785 97.7772 130.6984 0010125 29.7645 330.4137 14.72235853513469 PATHFINDER 1 1 41787U 16059E 26119.93467084 .00000803 00000+0 14868-3 0 9998 2 41787 97.8176 121.3898 0028539 3.2665 356.8722 14.67603276512630 SCATSAT 1 1 41790U 16059H 26119.92379606 .00001425 00000+0 19351-3 0 9996 2 41790 98.1218 183.1888 0055585 44.8293 315.7388 14.79420441 94450 GOKTURK 1A 1 41875U 16073A 26119.95264837 .00000522 00000+0 11149-3 0 9992 2 41875 98.1307 15.3703 0001414 81.5594 278.5768 14.62796815501778 RESOURCESAT-2A 1 41877U 16074A 26119.92915019 -.00000412 00000+0 -16760-3 0 9991 2 41877 98.7541 193.8244 0001725 184.5639 175.5523 14.21599614487442 CARTOSAT-2D 1 41948U 17008A 26119.94685623 .00003826 00000+0 18440-3 0 9992 2 41948 97.4148 180.1418 0005587 62.1743 298.0057 15.19303431510256 SENTINEL-2B 1 42063U 17013A 26119.95572403 .00000021 00000+0 24720-4 0 9992 2 42063 98.5653 195.4119 0001231 90.4764 269.6560 14.30815022477749 CARTOSAT-2E 1 42767U 17036C 26119.83227728 .00003628 00000+0 17558-3 0 9998 2 42767 97.4314 180.4208 0004286 107.5152 252.6551 15.19201855490804 FORMOSAT-5 1 42920U 17049A 26119.91611808 .00000189 00000+0 58897-4 0 9999 2 42920 98.2258 196.2963 0010510 226.6811 133.3509 14.50879311459676 SENTINEL-5P 1 42969U 17064A 26119.84833758 .00000052 00000+0 45697-4 0 9994 2 42969 98.7945 62.3277 0001222 80.2736 279.8578 14.19510615442700 SKYSAT-C11 1 42987U 17068A 26119.90827108 .00029091 00000+0 42806-3 0 9999 2 42987 97.4292 266.7500 0001551 136.8624 223.2752 15.55410168475738 SKYSAT-C10 1 42988U 17068B 26119.89724646 .00010028 00000+0 30928-3 0 9993 2 42988 97.4430 256.3262 0001675 107.7061 252.4365 15.33786187474952 SKYSAT-C9 1 42989U 17068C 26119.92551480 .00014200 00000+0 35318-3 0 9996 2 42989 97.4355 256.8413 0007410 315.5866 44.4785 15.40372212475322 SKYSAT-C8 1 42990U 17068D 26119.94008551 .00012033 00000+0 34537-3 0 9990 2 42990 97.4447 255.9891 0001235 112.1362 248.0013 15.36008181474902 SKYSAT-C7 1 42991U 17068E 26119.93187636 .00011938 00000+0 34324-3 0 9999 2 42991 97.4459 256.9676 0004662 279.7282 80.3435 15.35948257474963 SKYSAT-C6 1 42992U 17068F 26119.93938176 .00010540 00000+0 32681-3 0 9995 2 42992 97.4493 257.1047 0001520 347.6998 12.4207 15.33602494474923 CARTOSAT-2F 1 43111U 18004A 26119.92984932 .00002659 00000+0 12919-3 0 9994 2 43111 97.4073 180.1360 0002462 89.5999 270.5518 15.19303719460001 GAOFEN-1 02 1 43259U 18031A 26119.97804789 .00000236 00000+0 41387-4 0 9994 2 43259 98.0562 182.6309 0003662 141.5865 218.5606 14.76448128435589 GAOFEN-1 03 1 43260U 18031B 26119.95621516 .00000780 00000+0 11951-3 0 9996 2 43260 98.0548 182.4727 0001789 194.1563 165.9597 14.76436974435573 GAOFEN-1 04 1 43262U 18031D 26119.93177652 .00000745 00000+0 11445-3 0 9992 2 43262 98.0563 182.6333 0000753 110.3273 249.8017 14.76471083435563 SENTINEL-3B 1 43437U 18039A 26119.94035808 .00000116 00000+0 65880-4 0 9996 2 43437 98.6267 188.1589 0001617 89.9254 270.2112 14.26734769417245 GAOFEN-5 01 1 43461U 18043A 26119.90202591 .00000387 00000+0 89789-4 0 9993 2 43461 98.4539 90.4853 0001088 183.4236 176.6957 14.60570916424641 GAOFEN-6 1 43484U 18048A 26119.95831867 .00000680 00000+0 10444-3 0 9999 2 43484 97.7793 184.4020 0011463 338.3568 21.7156 14.76573803426274 GAOFEN-11 01 1 43585U 18063A 26119.96074628 .00009832 00000+0 15421-3 0 9991 2 43585 97.1329 187.0183 0005178 135.9803 224.1864 15.53873357432852 ICESAT-2 1 43613U 18070A 26119.96238848 .00003359 00000+0 12195-3 0 9990 2 43613 92.0020 277.9693 0001760 68.7789 291.3649 15.28271264425096 HYSIS 1 43719U 18096A 26119.89485308 .00001252 00000+0 17787-3 0 9994 2 43719 97.9867 187.0146 0000792 87.9796 272.1506 14.78676909400287 KAZSTSAT 1 43783U 18099AB 26119.66101036 .00000720 00000+0 62747-4 0 9992 2 43783 97.4358 153.7863 0004265 187.1133 173.0031 14.99780970404037 SAUDISAT 5A 1 43831U 18102A 26119.89399674 .00005780 00000+0 21704-3 0 9991 2 43831 97.3105 182.4147 0008262 311.2090 48.8437 15.27550228408303 SAUDISAT 5B 1 43833U 18102C 26119.92138472 .00005558 00000+0 20702-3 0 9994 2 43833 97.3208 185.4240 0009010 313.4370 46.6119 15.27833052408428 GAOFEN-10R 1 44622U 19066A 26119.97897608 .00001344 00000+0 17234-3 0 9994 2 44622 98.0468 73.2204 0004386 303.9517 56.1279 14.82950981355237 CARTOSAT-3 1 44804U 19081A 26119.94501218 .00002512 00000+0 12208-3 0 9993 2 44804 97.4342 182.5775 0010871 325.6504 34.4027 15.19311325356148 GAOFEN-12 01 1 44819U 19082A 26119.95644645 .00000455 00000+0 66222-4 0 9993 2 44819 97.8117 127.6084 0001616 125.8719 234.2644 14.80418379346953 CSG-1 1 44873U 19092A 26119.98385742 .00000506 00000+0 70106-4 0 9990 2 44873 97.8887 304.2838 0001306 94.6144 265.5218 14.82158308344337 NEMO-HD 1 46277U 20061F 26119.91431841 .00010828 00000+0 24253-3 0 9992 2 46277 97.1959 182.3812 0001657 132.9011 227.2377 15.43612522314536 SENTINEL-6A 1 46984U 20086A 26119.75649216 -.00000077 00000+0 -70447-4 0 9997 2 46984 66.0414 235.6418 0007794 270.2922 89.7200 12.80930871254123 GAOFEN-12 02 1 48079U 21026A 26119.96239549 .00000460 00000+0 67410-4 0 9996 2 48079 97.9926 118.3430 0005768 43.8563 316.3106 14.80256817274620 PLEIADES NEO 3 1 48268U 21034A 26119.96743530 .00001169 00000+0 15517-3 0 9992 2 48268 97.8933 195.4260 0001352 97.8432 262.2934 14.81675851270519 PLEIADES NEO 4 1 49070U 21073E 26119.93365831 -.00000708 00000+0 -83418-4 0 9994 2 49070 97.8935 195.3889 0001370 91.1223 269.0147 14.81671332254225 LANDSAT 9 1 49260U 21088A 26119.92207967 .00000371 00000+0 92381-4 0 9998 2 49260 98.1869 190.8589 0001295 105.5900 254.5442 14.57123453243977 CSG-2 1 51444U 22008A 26119.95009242 .00001113 00000+0 14631-3 0 9993 2 51444 97.8883 304.2473 0001423 84.4262 275.7114 14.82157232229445 GAOFEN-12 03 1 52912U 22069A 26119.91537532 .00000991 00000+0 13782-3 0 9994 2 52912 97.8343 8.9906 0001087 44.7670 315.3630 14.79955170207470 SWOT 1 54754U 22173A 26119.97101892 .00000105 00000+0 72925-4 0 9990 2 54754 77.6080 100.3970 0000811 143.6792 216.4415 14.00171044172406 GAOFEN-12 04 1 57654U 23123A 26119.93816424 .00001121 00000+0 15450-3 0 9996 2 57654 97.9133 38.6503 0001299 91.1675 268.9686 14.80133038145495 PARS 1 1 59065U 24039Q 26119.94015946 .00012361 00000+0 26624-3 0 9995 2 59065 97.4800 99.3862 0007494 294.2962 65.7503 15.44728396121199 RESURS-P 4 1 59371U 24061A 26119.92854753 .00003803 00000+0 12615-3 0 9991 2 59371 97.2723 68.6887 0002379 56.9087 303.2383 15.31847421116372 LEGION 1 1 59625U 24081A 26119.93372042 .00004173 00000+0 21564-3 0 9996 2 59625 97.5027 198.3013 0010129 178.4984 181.6281 15.16789160110225 LEGION 2 1 59626U 24081B 26119.96673497 .00004954 00000+0 25356-3 0 9998 2 59626 97.5027 198.4245 0011661 152.8521 207.3324 15.17020410110231 ALOS-4 (DAICHI-4) 1 60182U 24123A 26119.93627392 .00001650 00000+0 22779-3 0 9990 2 60182 97.9210 217.7935 0001587 97.7722 262.3670 14.79471693 98741 LEGION 3 1 60452U 24146A 26119.89148460 .00004767 00000+0 25955-3 0 9995 2 60452 45.0017 289.4996 0009064 247.8128 112.1789 15.15680406 94697 LEGION 4 1 60453U 24146B 26119.89249631 .00004166 00000+0 23368-3 0 9997 2 60453 45.0030 21.3774 0010147 44.5205 315.6487 15.14879533 93540 SENTINEL-2C 1 60989U 24157A 26119.92081220 .00000111 00000+0 59056-4 0 9995 2 60989 98.5630 195.3884 0001518 100.2912 259.8442 14.30817443 86084 IONOSFERA-M 1 1 61735U 24199A 26119.95004826 .00000069 00000+0 50528-4 0 9998 2 61735 98.7240 353.6160 0000285 20.8091 339.3099 14.22745073120849 IONOSFERA-M 2 1 61736U 24199B 26119.91412853 .00000071 00000+0 51214-4 0 9994 2 61736 98.7239 353.4915 0001965 92.9474 267.1929 14.22747952123969 BIOMASS 1 63772U 25090A 26119.82860024 .00001151 00000+0 21141-3 0 9999 2 63772 98.0748 307.8435 0001387 88.9725 271.1639 14.67537712 53595 GOSAT-GW (IBUKI GW) 1 64694U 25141A 26119.91768995 -.00001045 00000+0 -17587-3 0 9997 2 64694 98.0556 58.0250 0001344 81.3938 278.7419 14.67552167 44761 IONOSFERA-M 3 1 64876U 25155A 26119.95900125 .00000061 00000+0 47529-4 0 9996 2 64876 98.6000 83.0881 0001818 39.0658 321.0651 14.21477866 39559 IONOSFERA-M 4 1 64877U 25155B 26119.92352382 .00000057 00000+0 45671-4 0 9991 2 64877 98.5994 82.9713 0001294 52.5606 307.5690 14.21479828 39545 MICROCARB 1 64899U 25156A 26119.76087636 .00000641 00000+0 10920-3 0 9992 2 64899 97.9835 197.7623 0017652 69.3091 291.0007 14.72273782 40841 CO3D 3 1 64900U 25156B 26118.55724756 .00004079 00000+0 19143-3 0 9997 2 64900 97.4329 197.9633 0001048 49.5521 310.5805 15.20201512 41996 CO3D 4 1 64901U 25156C 26118.49158032 .00002003 00000+0 95596-4 0 9991 2 64901 97.4326 197.8981 0002016 101.4971 258.6491 15.20211498 41988 CO3D 2 1 64902U 25156D 26118.58987872 .00004362 00000+0 20458-3 0 9998 2 64902 97.4327 197.8942 0000590 63.5253 296.6042 15.20192497 41995 CO3D 1 1 64903U 25156E 26103.64843334 .00003151 00000+0 12932-3 0 9997 2 64903 98.0928 182.3847 0110033 5.8142 354.4339 15.19681462 39726 SENTINEL-6B 1 66514U 25264A 26119.67876052 -.00000076 00000+0 -65502-4 0 9997 2 66514 66.0414 235.9294 0007958 269.6399 90.3704 12.80930766 20953 CSG-3 1 67304U 26001A 26119.92898721 .00000360 00000+0 51766-4 0 9991 2 67304 97.8884 304.2293 0001372 85.0882 275.0488 14.82147738 17314